| time (UTC) | temp C | wind direction | speed KPH | gust KPH | rain 1hr cm | rain 24hr cm | rain mn cm | humidity % | barometer mb |
| 20260504141236 | 11 | 302 | 0.0 | 1.6 | 0.00 | 0.00 | 0.08 | 89 | |
| 20260504140653 | 10 | 179 | 1.6 | 4.8 | 0.00 | 0.00 | 0.08 | 88 | |
| 20260504130633 | 7 | 341 | 0.0 | 1.6 | 0.00 | 0.00 | 0.00 | 88 | |
| 20260504110627 | 5 | 333 | 0.0 | 0.0 | 0.00 | 0.00 | 0.00 | 94 | |
| 20260504081814 | 5 | 350 | 0.0 | 0.0 | 0.00 | 0.00 | 0.00 | 90 | |
| 20260504081216 | 5 | 350 | 0.0 | 0.0 | 0.00 | 0.00 | 0.00 | 90 | |
| 20260504080626 | 5 | 350 | 0.0 | 0.0 | 0.00 | 0.00 | 0.00 | 90 | |
| 20260504045417 | 3 | 268 | 0.0 | 0.0 | 0.00 | 0.00 | 0.00 | 93 | |
| 20260504044831 | 3 | 268 | 0.0 | 0.0 | 0.00 | 0.00 | 0.00 | 92 | |
| 20260504044221 | 3 | 268 | 0.0 | 0.0 | 0.00 | 0.00 | 0.00 | 91 | |
| 20260504043642 | 3 | 268 | 0.0 | 0.0 | 0.00 | 0.00 | 0.00 | 91 | |
| 20260504043048 | 3 | 268 | 0.0 | 0.0 | 0.00 | 0.00 | 0.00 | 90 | |
| 20260504042431 | 3 | 268 | 0.0 | 0.0 | 0.00 | 0.00 | 0.00 | 90 | |
| 20260504041228 | 4 | 268 | 0.0 | 0.0 | 0.00 | 0.00 | 0.00 | 89 | |
| 20260504040644 | 4 | 268 | 0.0 | 0.0 | 0.00 | 0.00 | 0.00 | 89 | |
| 20260504040030 | 4 | 268 | 0.0 | 1.6 | 0.00 | 0.00 | 0.00 | 89 | |
| 20260504035428 | 4 | 268 | 0.0 | 0.0 | 0.00 | 0.00 | 0.00 | 89 | |
| 20260504034214 | 4 | 268 | 0.0 | 0.0 | 0.00 | 0.00 | 0.00 | 88 | |
| 20260504033612 | 4 | 268 | 0.0 | 0.0 | 0.00 | 0.00 | 0.00 | 87 | |
| 20260504033036 | 5 | 268 | 0.0 | 0.0 | 0.00 | 0.00 | 0.00 | 87 | |
| 20260504031244 | 5 | 268 | 0.0 | 0.0 | 0.00 | 0.00 | 0.00 | 84 | |
| 20260504030018 | 5 | 268 | 0.0 | 0.0 | 0.00 | 0.00 | 0.00 | 84 | |
| 20260504025413 | 5 | 268 | 0.0 | 0.0 | 0.00 | 0.00 | 0.00 | 84 | |
| 20260504024824 | 5 | 268 | 0.0 | 0.0 | 0.00 | 0.00 | 0.00 | 83 | |
| 20260504024220 | 6 | 268 | 0.0 | 0.0 | 0.00 | 0.00 | 0.00 | 81 | |
| 20260504023633 | 6 | 268 | 0.0 | 0.0 | 0.00 | 0.00 | 0.00 | 80 | |
| 20260504023027 | 6 | 268 | 0.0 | 0.0 | 0.00 | 0.00 | 0.00 | 80 | |
| 20260504022437 | 6 | 268 | 0.0 | 1.6 | 0.00 | 0.00 | 0.00 | 79 | |
| 20260504021834 | 6 | 268 | 0.0 | 0.0 | 0.00 | 0.00 | 0.00 | 80 | |
| 20260504020620 | 6 | 268 | 0.0 | 0.0 | 0.00 | 0.00 | 0.00 | 77 | |
| 20260504020020 | 6 | 268 | 0.0 | 0.0 | 0.00 | 0.00 | 0.00 | 77 | |
| 20260504015443 | 6 | 268 | 1.6 | 1.6 | 0.00 | 0.00 | 0.00 | 77 | |
| 20260504014826 | 7 | 268 | 0.0 | 0.0 | 0.00 | 0.00 | 0.00 | 76 | |
| 20260504014244 | 7 | 268 | 0.0 | 0.0 | 0.00 | 0.00 | 0.00 | 75 | |
| 20260504013650 | 7 | 268 | 0.0 | 1.6 | 0.00 | 0.00 | 0.00 | 73 | |
| 20260504012412 | 7 | 268 | 0.0 | 0.0 | 0.00 | 0.00 | 0.00 | 75 | |
| 20260504011837 | 7 | 268 | 0.0 | 1.6 | 0.00 | 0.00 | 0.00 | 73 | |
| 20260504011214 | 8 | 268 | 0.0 | 0.0 | 0.00 | 0.00 | 0.00 | 72 | |
| 20260504010635 | 8 | 268 | 0.0 | 1.6 | 0.00 | 0.00 | 0.00 | 70 | |
| 20260504010049 | 8 | 268 | 0.0 | 0.0 | 0.00 | 0.00 | 0.00 | 72 | |
| 20260504005438 | 8 | 268 | 0.0 | 0.0 | 0.00 | 0.00 | 0.00 | 68 | |
| 20260504004247 | 8 | 268 | 0.0 | 1.6 | 0.00 | 0.00 | 0.00 | 68 | |
| 20260504003614 | 9 | 268 | 0.0 | 0.0 | 0.00 | 0.00 | 0.00 | 66 | |
| 20260504003040 | 10 | 268 | 0.0 | 0.0 | 0.00 | 0.00 | 0.00 | 65 | |
| 20260504002436 | 10 | 268 | 0.0 | 1.6 | 0.00 | 0.00 | 0.00 | 63 | |
| 20260504001818 | 10 | 268 | 0.0 | 0.0 | 0.00 | 0.00 | 0.00 | 63 | |
| 20260504001219 | 10 | 268 | 0.0 | 1.6 | 0.00 | 0.00 | 0.00 | 63 | |
| 20260504000654 | 11 | 268 | 0.0 | 1.6 | 0.00 | 0.00 | 0.00 | 57 | |
| 20260504000042 | 11 | 268 | 0.0 | 0.0 | 0.00 | 0.00 | 0.00 | 56 | |
| 20260503235412 | 11 | 268 | 1.6 | 1.6 | 0.00 | 0.00 | 0.00 | 55 | |
| 20260503234815 | 12 | 268 | 0.0 | 1.6 | 0.00 | 0.00 | 0.00 | 55 | |
| 20260503234236 | 12 | 268 | 0.0 | 0.0 | 0.00 | 0.00 | 0.00 | 53 | |
| 20260503233627 | 13 | 268 | 0.0 | 1.6 | 0.00 | 0.00 | 0.00 | 50 | |
| 20260503233035 | 13 | 269 | 0.0 | 0.0 | 0.00 | 0.00 | 0.00 | 48 | |
| 20260503232447 | 15 | 224 | 1.6 | 1.6 | 0.00 | 0.00 | 0.00 | 42 | |
| 20260503231818 | 15 | 224 | 0.0 | 1.6 | 0.00 | 0.00 | 0.00 | 41 | |
| 20260503231252 | 15 | 238 | 1.6 | 1.6 | 0.00 | 0.00 | 0.00 | 43 | |
| 20260503230636 | 16 | 271 | 0.0 | 1.6 | 0.00 | 0.00 | 0.00 | 38 | |
| 20260503230041 | 16 | 247 | 0.0 | 3.2 | 0.00 | 0.00 | 0.00 | 36 | |
| 20260503224223 | 17 | 228 | 1.6 | 4.8 | 0.00 | 0.00 | 0.00 | 34 | |
| 20260503223614 | 17 | 178 | 1.6 | 3.2 | 0.00 | 0.00 | 0.00 | 29 | |
| 20260503223014 | 17 | 176 | 1.6 | 4.8 | 0.00 | 0.00 | 0.00 | 29 | |
| 20260503222422 | 17 | 232 | 1.6 | 4.8 | 0.00 | 0.00 | 0.00 | 29 | |
| 20260503221820 | 17 | 170 | 4.8 | 6.4 | 0.00 | 0.00 | 0.00 | 28 | |
| 20260503221224 | 17 | 139 | 1.6 | 11.3 | 0.00 | 0.00 | 0.00 | 27 | |
| 20260503220654 | 17 | 279 | 1.6 | 4.8 | 0.00 | 0.00 | 0.00 | 29 | |
| 20260503220044 | 17 | 203 | 6.4 | 14.5 | 0.00 | 0.00 | 0.00 | 28 | |
| 20260503215439 | 17 | 240 | 6.4 | 16.1 | 0.00 | 0.00 | 0.00 | 28 | |
| 20260503214810 | 17 | 125 | 0.0 | 3.2 | 0.00 | 0.00 | 0.00 | 31 | |
| 20260503214224 | 18 | 160 | 3.2 | 4.8 | 0.00 | 0.00 | 0.00 | 27 | |
| 20260503213647 | 17 | 286 | 1.6 | 4.8 | 0.00 | 0.00 | 0.00 | 27 | |
| 20260503212440 | 17 | 176 | 4.8 | 12.9 | 0.00 | 0.00 | 0.00 | 26 | |
| 20260503211827 | 17 | 67 | 1.6 | 6.4 | 0.00 | 0.00 | 0.00 | 31 | |
| 20260503211227 | 17 | 158 | 1.6 | 12.9 | 0.00 | 0.00 | 0.00 | 30 | |
| 20260503210647 | 17 | 244 | 1.6 | 6.4 | 0.00 | 0.00 | 0.00 | 29 | |
| 20260503210017 | 17 | 208 | 3.2 | 9.7 | 0.00 | 0.00 | 0.00 | 30 | |
| 20260503205430 | 17 | 10 | 1.6 | 3.2 | 0.00 | 0.00 | 0.00 | 30 | |
| 20260503204242 | 17 | 316 | 1.6 | 3.2 | 0.00 | 0.00 | 0.00 | 30 | |
| 20260503203038 | 17 | 192 | 3.2 | 4.8 | 0.00 | 0.00 | 0.00 | 30 | |
| 20260503202422 | 17 | 241 | 3.2 | 6.4 | 0.00 | 0.00 | 0.00 | 34 | |
| 20260503201816 | 17 | 196 | 8.0 | 12.9 | 0.00 | 0.00 | 0.00 | 31 | |
| 20260503201234 | 16 | 190 | 4.8 | 14.5 | 0.00 | 0.00 | 0.00 | 32 | |
| 20260503200625 | 16 | 199 | 3.2 | 4.8 | 0.00 | 0.00 | 0.00 | 32 | |
| 20260503200026 | 17 | 220 | 1.6 | 9.7 | 0.00 | 0.00 | 0.00 | 28 | |
| 20260503195409 | 16 | 20 | 0.0 | 1.6 | 0.00 | 0.00 | 0.00 | 31 | |
| 20260503194821 | 16 | 186 | 4.8 | 11.3 | 0.00 | 0.00 | 0.00 | 28 | |
| 20260503194241 | 16 | 24 | 0.0 | 3.2 | 0.00 | 0.00 | 0.00 | 31 | |
| 20260503193621 | 16 | 272 | 3.2 | 3.2 | 0.00 | 0.00 | 0.00 | 38 | |
| 20260503193043 | 16 | 238 | 3.2 | 11.3 | 0.00 | 0.00 | 0.00 | 33 | |
| 20260503192436 | 16 | 215 | 3.2 | 9.7 | 0.00 | 0.00 | 0.00 | 34 | |
| 20260503191842 | 15 | 136 | 3.2 | 6.4 | 0.00 | 0.00 | 0.00 | 30 | |
| 20260503191249 | 16 | 194 | 6.4 | 9.7 | 0.00 | 0.00 | 0.00 | 31 | |
| 20260503190636 | 15 | 125 | 3.2 | 11.3 | 0.00 | 0.00 | 0.00 | 35 | |
| 20260503190052 | 15 | 93 | 4.8 | 9.7 | 0.00 | 0.00 | 0.00 | 30 | |
| 20260503185423 | 15 | 242 | 8.0 | 12.9 | 0.00 | 0.00 | 0.00 | 33 | |
| 20260503184846 | 15 | 198 | 3.2 | 12.9 | 0.00 | 0.00 | 0.00 | 35 | |
| 20260503184216 | 15 | 247 | 1.6 | 6.4 | 0.00 | 0.00 | 0.00 | 32 | |
| 20260503183031 | 14 | 192 | 3.2 | 6.4 | 0.00 | 0.00 | 0.00 | 39 | |
| 20260503182446 | 13 | 237 | 3.2 | 9.7 | 0.00 | 0.00 | 0.00 | 33 | |
| 20260503181853 | 14 | 302 | 3.2 | 6.4 | 0.00 | 0.00 | 0.00 | 30 | |
| 20260503181236 | 14 | 233 | 6.4 | 9.7 | 0.00 | 0.00 | 0.00 | 35 | |
| 20260503180651 | 14 | 183 | 6.4 | 9.7 | 0.00 | 0.00 | 0.00 | 33 | |
| 20260503180026 | 14 | 200 | 8.0 | 17.7 | 0.00 | 0.00 | 0.00 | 35 | |
| 20260503175417 | 14 | 293 | 4.8 | 9.7 | 0.00 | 0.00 | 0.00 | 32 | |
| 20260503174820 | 13 | 257 | 6.4 | 6.4 | 0.00 | 0.00 | 0.00 | 36 | |
| 20260503174213 | 14 | 288 | 4.8 | 6.4 | 0.00 | 0.00 | 0.00 | 34 | |
| 20260503173627 | 14 | 312 | 0.0 | 3.2 | 0.00 | 0.00 | 0.00 | 37 | |
| 20260503173035 | 13 | 318 | 0.0 | 11.3 | 0.00 | 0.00 | 0.00 | 37 | |
| 20260503172413 | 13 | 157 | 9.7 | 11.3 | 0.00 | 0.00 | 0.00 | 37 | |
| 20260503171814 | 13 | 282 | 3.2 | 6.4 | 0.00 | 0.00 | 0.00 | 37 | |
| 20260503171254 | 13 | 159 | 3.2 | 12.9 | 0.00 | 0.00 | 0.00 | 37 |